EW8104 Weather Reports


time (UTC)temp
C
wind
direction
speed
KPH
gust
KPH
rain 1hr
cm
rain 24hr
cm
rain mn
cm
humidity
%
barometer
mb
20260503071504 20 324 6.4 17.7 0.00 1.68 0.00 99 1013.5
20260503070103 20 277 8.0 24.1 0.00 1.68 0.00 98 1013.5
20260503054551 20 315 8.0 17.7 0.00 1.68 0.00 98 1014.0
20260503053048 20 342 8.0 20.9 0.00 1.68 0.00 99 1014.2
20260503051555 21 328 9.7 19.3 0.00 1.68 0.00 99 1014.2
20260503050045 21 275 8.0 16.1 0.00 1.68 0.00 99 1014.2
20260503044541 21 325 3.2 11.3 0.00 1.68 0.00 99 1013.9
20260503043041 21 289 6.4 14.5 0.03 1.68 0.00 99 1013.8
20260503041539 21 313 6.4 16.1 0.05 1.68 0.00 99 1013.7
20260503040035 21 287 8.0 22.5 0.15 1.68 1.68 99 1013.5
20260503034532 21 293 8.0 16.1 0.18 1.68 1.68 99 1013.4
20260503033041 21 300 1.6 11.3 0.15 1.65 1.65 99 1013.3
20260503031530 21 255 0.0 6.4 0.10 1.60 1.60 99 1013.0
20260503030029 21 258 0.0 0.0 0.03 1.52 1.52 99 1012.8
20260503024525 21 259 0.0 12.9 0.00 1.50 1.50 99 1012.6
20260503023024 22 169 3.2 20.9 0.00 1.50 1.50 99 1012.3
20260503021527 22 116 3.2 12.9 0.00 1.50 1.50 99 1012.2
20260503020023 22 158 4.8 14.5 0.00 1.50 1.50 99 1012.2
20260503014533 22 183 6.4 16.1 0.00 1.50 1.50 99 1012.0
20260503013020 22 179 9.7 14.5 0.00 1.50 1.50 99 1011.7
20260503011521 22 227 6.4 16.1 0.00 1.50 1.50 99 1011.4
20260503010021 22 167 4.8 14.5 0.00 1.50 1.50 99 1011.2
20260503004525 22 144 8.0 20.9 0.00 1.50 1.50 99 1011.0
20260503003017 21 190 9.7 0.0 0.00 0.00 1.50 99 1011.0
20260503001517 21 242 8.0 24.1 0.00 1.50 1.50 99 1010.9
20260503000015 21 213 8.0 25.7 0.00 1.50 1.50 99 1010.8
20260502234513 21 234 1.6 12.9 0.03 1.50 1.50 99 1009.5
20260502233013 21 205 3.2 14.5 0.05 1.50 1.50 98 1009.7
20260502231515 21 198 4.8 22.5 0.05 1.50 1.50 98 1010.1
20260502230012 21 200 11.3 24.1 0.08 1.50 1.50 98 1010.8
20260502224505 21 177 6.4 14.5 0.08 1.45 1.45 98 1010.4
20260502223002 22 207 6.4 14.5 0.08 1.42 1.42 99 1010.3
20260502221600 22 157 9.7 19.3 0.10 1.42 1.42 98 1010.5
20260502220106 22 150 6.4 19.3 0.13 1.42 1.42 98 1010.5
20260502214556 22 155 0.0 1.6 0.15 1.40 1.40 98 1010.2
20260502213116 22 146 0.0 0.0 0.13 1.37 1.37 98 1009.9
20260502211625 22 104 0.0 3.2 0.13 1.35 1.35 98 1009.3
20260502210105 22 94 0.0 8.0 0.08 1.30 1.30 98 1009.7
20260502204552 22 119 0.0 9.7 0.03 1.24 1.24 98 1010.4
20260502203058 22 311 0.0 1.6 0.05 1.24 1.24 98 1009.9
20260502201556 22 311 0.0 8.0 0.03 1.22 1.22 98 1010.2
20260502200051 22 237 0.0 9.7 1.22 1.22 1.22 98 1010.4
20260502194556 23 254 1.6 12.9 1.22 1.22 1.22 98 1010.4
20260502193045 22 217 8.0 20.9 1.19 1.19 1.19 98 1010.3
20260502191545 23 178 4.8 40.2 1.17 1.17 1.17 96 1010.4
20260502190042 28 137 9.7 14.5 0.00 0.00 0.00 88 1010.5
20260502184551 28 148 4.8 16.1 0.00 0.00 0.00 87 1010.5
20260502183051 28 146 9.7 20.9 0.00 0.00 0.00 86 1010.7
20260502181543 28 134 3.2 14.5 0.00 0.00 0.00 85 1010.8
20260502163042 32 140 8.0 22.5 0.00 0.00 0.00 76 1011.1
20260502161539 32 203 9.7 20.9 0.00 0.00 0.00 74 1010.9
20260502151519 32 161 8.0 22.5 0.00 0.00 0.00 75 1011.5
20260502123044 25 173 11.3 25.7 0.00 0.00 0.00 93 1009.6
20260502121541 25 134 9.7 22.5 0.00 0.00 0.00 93 1009.6
20260502114538 24 130 9.7 19.3 0.00 0.00 0.00 93 1009.4
20260502113035 23 111 8.0 17.7 0.00 0.00 0.00 94 1009.5
20260502111530 23 109 4.8 17.7 0.00 0.00 0.00 93 1009.5
20260502110031 23 123 8.0 14.5 0.00 0.00 0.00 93 1009.4
20260502104527 23 119 6.4 16.1 0.00 0.00 0.00 93 1009.1
20260502103032 23 126 8.0 16.1 0.00 0.00 0.00 92 1009.1
20260502101542 23 65 4.8 12.9 0.00 0.00 0.00 92 1009.2
20260502091519 23 111 1.6 12.9 0.00 0.00 0.00 92 1009.2